Satellite: NOAA-17
Catalog number: 27453
Epoch time:      12137.76437232
Element set:    0706
Inclination:      098.3387 deg
RA of node:       166.3861 deg
Eccentricity:    0.0010684
Arg of perigee:   247.1849 deg
Mean anomaly:     112.8196 deg
Mean motion:   14.24430773 rev/day
Decay rate:       1.91e-06 rev/day^2
Epoch rev:           51428
Checksum:              317

Satellite: NOAA-18
Catalog number: 28654
Epoch time:      12137.80845704
Element set:    0181
Inclination:      099.0429 deg
RA of node:       095.6389 deg
Eccentricity:    0.0013395
Arg of perigee:   242.0741 deg
Mean anomaly:     117.9082 deg
Mean motion:   14.11647799 rev/day
Decay rate:       1.74e-06 rev/day^2
Epoch rev:           36013
Checksum:              320

Satellite: NOAA-19
Catalog number: 33591
Epoch time:      12137.80934715
Element set:    0373
Inclination:      098.8624 deg
RA of node:       077.9894 deg
Eccentricity:    0.0014992
Arg of perigee:   108.5347 deg
Mean anomaly:     251.7442 deg
Mean motion:   14.11337245 rev/day
Decay rate:       4.15e-06 rev/day^2
Epoch rev:           16858
Checksum:              333

/EX
SB KEPS @ AMSAT  $ORB12138.M
Orbital Elements  12138.MISC

HR AMSAT ORBITAL ELEMENTS FOR MANNED AND MISCELLANEOUS SATELLITES
FROM WA5QGD FORT WORTH,TX May 17, 2012
Send SUBSCRIBE KEPS/UNSUBSCRIBE KEPS to majordomo@amsat.org only
BID: ORB12138.M
TO ALL RADIO AMATEURS BT

Satellite: HUBBLE
Catalog number: 20580
Epoch time:      12138.17053356
Element set:       2
Inclination:      028.4715 deg
RA of node:       346.5126 deg
Eccentricity:    0.0003476
Arg of perigee:   087.8872 deg
Mean anomaly:     272.2114 deg
Mean motion:   15.02470528 rev/day
Decay rate:      1.743e-05 rev/day^2
Epoch rev:            1006
Checksum:              259

Satellite: ISS
Catalog number: 25544
Epoch time:      12139.07006944
Element set:     573
Inclination:      051.6405 deg
RA of node:       273.0039 deg
Eccentricity:    0.0010581
Arg of perigee:   331.2861 deg
Mean anomaly:     014.4487 deg
Mean motion:   15.56174428 rev/day
Decay rate:     1.1767e-04 rev/day^2
Epoch rev:           77331
Checksum:              286

Satellite: CO-58
Catalog number: 28895
Epoch time:      12137.63930815
Element set:    0177
Inclination:      097.9197 deg
RA of node:       005.2925 deg
Eccentricity:    0.0016688
Arg of perigee:   249.0655 deg
Mean anomaly:     110.8793 deg
Mean motion:   14.60604594 rev/day
Decay rate:       6.87e-06 rev/day^2
Epoch rev:           34905
Checksum:              354

Satellite: FALCON
Catalog number: 30776
Epoch time:      12138.92213943
Element set:     348
Inclination:      035.4311 deg
RA of node:       101.6739 deg
Eccentricity:    0.0001067
Arg of perigee:   108.7216 deg
Mean anomaly:     251.3626 deg
Mean motion:   15.07341586 rev/day
Decay rate:      3.994e-05 rev/day^2
Epoch rev:           28568
Checksum:              296

Satellite: MAST
Catalog number: 31126
Epoch time:      12137.98310156
Element set:    0469
Inclination:      097.8723 deg
RA of node:       150.9085 deg
Eccentricity:    0.0092841
Arg of perigee:   207.4965 deg
Mean anomaly:     152.1314 deg
Mean motion:   14.54135592 rev/day
Decay rate:       4.85e-06 rev/day^2
Epoch rev:           26973
Checksum:              309

Satellite: CAPE1
Catalog number: 31130
Epoch time:      12138.47483255
Element set:     470
Inclination:      097.8821 deg
RA of node:       147.7733 deg
Eccentricity:    0.0100608
Arg of perigee:   218.9045 deg
Mean anomaly:     140.4933 deg
Mean motion:   14.52908422 rev/day
Decay rate:       4.55e-06 rev/day^2
Epoch rev:           26931
Checksum:              289

Satellite: COMPASS
Catalog number: 32787
Epoch time:      12138.25428180
Element set:     304
Inclination:      097.8029 deg
RA of node:       200.2727 deg
Eccentricity:    0.0015553
Arg of perigee:   157.9349 deg
Mean anomaly:     202.2573 deg
Mean motion:   14.83884612 rev/day
Decay rate:      2.077e-05 rev/day^2
Epoch rev:           21922
Checksum:              297

Satellite: AAUSAT2
Catalog number: 32788
Epoch time:      12137.82603848
Element set:     294
Inclination:      097.8052 deg
RA of node:       200.2177 deg
Eccentricity:    0.0014840
Arg of perigee:   157.8724 deg
Mean anomaly:     202.3115 deg
Mean motion:   14.84197189 rev/day
Decay rate:      2.486e-05 rev/day^2
Epoch rev:           21918
Checksum:              314

Satellite: DO-64
Catalog number: 32789
Epoch time:      12137.70221503
Element set:     310
Inclination:      097.8146 deg
RA of node:       202.0003 deg
Eccentricity:    0.0015162
Arg of perigee:   156.7658 deg
Mean anomaly:     203.4211 deg
Mean motion:   14.85599149 rev/day
Decay rate:      3.714e-05 rev/day^2
Epoch rev:           21920
Checksum:              278

Satellite: CO-66
Catalog number: 32791
Epoch time:      12138.77155833
Element set:     295
Inclination:      097.8022 deg
RA of node:       200.5435 deg
Eccentricity:    0.0016162
Arg of perigee:   155.9419 deg
Mean anomaly:     204.2500 deg
Mean motion:   14.83323454 rev/day
Decay rate:      1.389e-05 rev/day^2
Epoch rev:           21923
Checksum:              298

